Time,TemperatureF,DewpointF,PressureIn,WindDirection,WindDirectionDegrees,WindSpeedMPH,WindSpeedGustMPH,Humidity,HourlyPrecipIn,Conditions,Clouds,dailyrainin,SoftwareType,DateUTC
2013-01-09 00:01:00,46.3,44.6,29.69,SW,225,4.3,6.0,94,0.06,,,0.00,WUHU216HW,2013-01-09 08:01:00,
2013-01-09 00:06:00,46.1,44.2,29.69,SW,225,3.4,7.2,93,0.06,,,0.01,WUHU216HW,2013-01-09 08:06:00,
2013-01-09 00:11:00,45.9,44.0,29.69,WSW,248,8.7,8.7,93,0.05,,,0.01,WUHU216HW,2013-01-09 08:11:00,
2013-01-09 00:16:00,45.7,43.6,29.69,West,270,4.9,8.7,92,0.05,,,0.01,WUHU216HW,2013-01-09 08:16:00,
2013-01-09 00:21:00,45.7,43.6,29.70,SW,225,7.6,8.5,92,0.05,,,0.02,WUHU216HW,2013-01-09 08:21:00,
2013-01-09 00:26:00,45.5,43.4,29.70,WNW,293,4.7,7.6,92,0.05,,,0.02,WUHU216HW,2013-01-09 08:26:00,
2013-01-09 00:31:00,45.4,43.2,29.70,SW,225,4.7,7.8,92,0.04,,,0.02,WUHU216HW,2013-01-09 08:31:00,
2013-01-09 00:36:00,45.4,43.2,29.70,SSW,203,4.7,7.8,92,0.03,,,0.02,WUHU216HW,2013-01-09 08:36:00,
2013-01-09 00:41:00,45.4,43.2,29.70,West,270,6.9,11.9,92,0.04,,,0.03,WUHU216HW,2013-01-09 08:41:00,
2013-01-09 00:46:00,45.2,43.0,29.70,SW,225,13.2,13.2,92,0.03,,,0.03,WUHU216HW,2013-01-09 08:46:00,
2013-01-09 00:51:00,45.0,42.8,29.70,SW,225,7.6,13.2,92,0.03,,,0.03,WUHU216HW,2013-01-09 08:51:00,
2013-01-09 00:56:00,45.0,42.8,29.70,SW,225,4.0,8.5,92,0.03,,,0.03,WUHU216HW,2013-01-09 08:56:00,
2013-01-09 01:01:00,45.0,42.8,29.70,WSW,248,2.7,12.8,92,0.03,,,0.03,WUHU216HW,2013-01-09 09:01:00,
2013-01-09 01:06:00,45.0,42.8,29.70,SSW,203,1.1,12.8,92,0.03,,,0.04,WUHU216HW,2013-01-09 09:06:00,
2013-01-09 01:11:00,44.8,42.7,29.69,SSW,203,5.1,8.7,92,0.03,,,0.04,WUHU216HW,2013-01-09 09:11:00,
2013-01-09 01:16:00,44.8,42.7,29.70,SW,225,6.5,7.8,92,0.02,,,0.04,WUHU216HW,2013-01-09 09:16:00,
2013-01-09 01:21:00,44.6,42.5,29.70,SW,225,4.0,6.9,92,0.02,,,0.04,WUHU216HW,2013-01-09 09:21:00,
2013-01-09 01:26:00,44.6,42.5,29.70,WSW,248,11.2,12.5,92,0.02,,,0.04,WUHU216HW,2013-01-09 09:26:00,
2013-01-09 01:31:00,44.5,42.3,29.70,SSW,203,4.7,12.5,92,0.02,,,0.04,WUHU216HW,2013-01-09 09:31:00,
2013-01-09 01:36:00,44.5,42.3,29.69,NNW,338,5.8,9.6,92,0.01,,,0.04,WUHU216HW,2013-01-09 09:36:00,
2013-01-09 01:41:00,44.5,42.3,29.69,South,180,2.0,9.8,92,0.01,,,0.04,WUHU216HW,2013-01-09 09:41:00,
2013-01-09 01:46:00,44.5,42.3,29.69,SW,225,6.7,9.8,92,0.01,,,0.04,WUHU216HW,2013-01-09 09:46:00,
2013-01-09 01:51:00,44.3,41.9,29.69,West,270,12.5,12.5,91,0.01,,,0.04,WUHU216HW,2013-01-09 09:51:00,
2013-01-09 01:56:00,44.3,41.9,29.69,SSW,203,2.5,12.5,91,0.01,,,0.04,WUHU216HW,2013-01-09 09:56:00,
2013-01-09 02:01:00,44.3,41.9,29.69,SW,225,11.6,13.0,91,0.00,,,0.04,WUHU216HW,2013-01-09 10:01:00,
2013-01-09 02:06:00,44.3,41.9,29.70,SSW,203,3.4,13.0,91,0.00,,,0.04,WUHU216HW,2013-01-09 10:06:00,
2013-01-09 02:11:00,44.3,41.9,29.70,SW,225,9.4,9.4,91,0.00,,,0.04,WUHU216HW,2013-01-09 10:11:00,
2013-01-09 02:16:00,44.3,41.9,29.69,East,90,3.4,9.4,91,0.00,,,0.04,WUHU216HW,2013-01-09 10:16:00,
2013-01-09 02:21:00,44.3,41.9,29.69,SSW,203,5.1,9.2,91,0.00,,,0.04,WUHU216HW,2013-01-09 10:21:00,
2013-01-09 02:26:00,44.1,41.7,29.70,WSW,248,5.4,10.7,91,0.00,,,0.04,WUHU216HW,2013-01-09 10:26:00,
2013-01-09 02:31:00,44.1,41.7,29.70,WSW,248,1.6,10.7,91,0.00,,,0.04,WUHU216HW,2013-01-09 10:31:00,
2013-01-09 02:36:00,43.9,41.5,29.70,WSW,248,6.3,9.2,91,0.00,,,0.04,WUHU216HW,2013-01-09 10:36:00,
2013-01-09 02:41:00,43.9,41.5,29.70,South,180,3.4,11.0,91,0.00,,,0.04,WUHU216HW,2013-01-09 10:41:00,
2013-01-09 02:46:00,43.7,41.3,29.70,SW,225,1.8,11.0,91,0.00,,,0.04,WUHU216HW,2013-01-09 10:46:00,
2013-01-09 02:51:00,43.7,41.3,29.70,SSE,158,7.6,7.8,91,0.00,,,0.04,WUHU216HW,2013-01-09 10:51:00,
2013-01-09 02:56:00,43.6,41.1,29.70,South,180,1.8,8.7,91,0.00,,,0.04,WUHU216HW,2013-01-09 10:56:00,
2013-01-09 03:01:00,43.6,41.1,29.70,NE,45,1.8,8.7,91,0.00,,,0.04,WUHU216HW,2013-01-09 11:01:00,
2013-01-09 03:06:00,43.6,41.1,29.70,South,180,8.1,8.9,91,0.00,,,0.04,WUHU216HW,2013-01-09 11:06:00,
2013-01-09 03:11:00,43.6,41.1,29.69,WSW,248,2.9,8.9,91,0.00,,,0.04,WUHU216HW,2013-01-09 11:11:00,
2013-01-09 03:17:00,43.6,41.1,29.69,SW,225,9.6,9.6,91,0.00,,,0.04,WUHU216HW,2013-01-09 11:17:00,
2013-01-09 03:22:00,43.6,40.9,29.69,SSW,203,9.2,9.6,90,0.00,,,0.04,WUHU216HW,2013-01-09 11:22:00,
2013-01-09 03:27:00,43.6,40.9,29.69,SSW,203,2.7,9.6,90,0.00,,,0.04,WUHU216HW,2013-01-09 11:27:00,
2013-01-09 03:32:00,43.6,40.9,29.69,WSW,248,4.9,10.1,90,0.00,,,0.04,WUHU216HW,2013-01-09 11:32:00,
2013-01-09 03:37:00,43.6,40.9,29.69,SW,225,8.7,10.1,90,0.00,,,0.04,WUHU216HW,2013-01-09 11:37:00,
2013-01-09 03:42:00,43.6,40.9,29.69,West,270,2.5,9.2,90,0.00,,,0.04,WUHU216HW,2013-01-09 11:42:00,
2013-01-09 03:47:00,43.6,40.9,29.69,SW,225,3.4,12.3,90,0.00,,,0.04,WUHU216HW,2013-01-09 11:47:00,
2013-01-09 03:52:00,43.6,40.9,29.69,SW,225,3.4,12.3,90,0.00,,,0.04,WUHU216HW,2013-01-09 11:52:00,
2013-01-09 03:57:00,43.4,40.7,29.69,SW,225,10.5,10.5,90,0.00,,,0.04,WUHU216HW,2013-01-09 11:57:00,
2013-01-09 04:02:00,43.4,40.7,29.68,SE,135,2.2,10.5,90,0.00,,,0.04,WUHU216HW,2013-01-09 12:02:00,
2013-01-09 04:07:00,43.4,40.7,29.68,WSW,248,5.6,10.5,90,0.00,,,0.04,WUHU216HW,2013-01-09 12:07:00,
2013-01-09 04:12:00,43.4,40.7,29.67,SSW,203,3.8,10.5,90,0.00,,,0.04,WUHU216HW,2013-01-09 12:12:00,
2013-01-09 04:17:00,43.2,40.5,29.68,SW,225,5.4,9.8,90,0.00,,,0.04,WUHU216HW,2013-01-09 12:17:00,
2013-01-09 04:22:00,43.2,40.5,29.67,South,180,5.4,9.8,90,0.00,,,0.04,WUHU216HW,2013-01-09 12:22:00,
2013-01-09 04:27:00,43.2,40.5,29.67,SSE,158,4.7,8.9,90,0.00,,,0.04,WUHU216HW,2013-01-09 12:27:00,
2013-01-09 04:32:00,43.0,40.3,29.67,WSW,248,1.3,5.8,90,0.00,,,0.04,WUHU216HW,2013-01-09 12:32:00,
2013-01-09 04:37:00,43.0,40.3,29.66,SW,225,3.1,5.8,90,0.00,,,0.04,WUHU216HW,2013-01-09 12:37:00,
2013-01-09 04:42:00,43.0,40.3,29.67,SW,225,7.4,7.4,90,0.00,,,0.04,WUHU216HW,2013-01-09 12:42:00,
2013-01-09 04:47:00,43.0,40.3,29.67,WSW,248,2.7,7.4,90,0.00,,,0.04,WUHU216HW,2013-01-09 12:47:00,
2013-01-09 04:52:00,43.0,40.3,29.66,South,180,6.9,6.9,90,0.00,,,0.04,WUHU216HW,2013-01-09 12:52:00,
2013-01-09 04:57:00,42.8,40.1,29.66,SW,225,2.5,6.9,90,0.00,,,0.04,WUHU216HW,2013-01-09 12:57:00,
2013-01-09 05:02:00,42.8,40.1,29.66,WSW,248,4.7,4.7,90,0.00,,,0.04,WUHU216HW,2013-01-09 13:02:00,
2013-01-09 05:08:00,42.8,40.1,29.66,South,180,2.7,4.7,90,0.00,,,0.04,WUHU216HW,2013-01-09 13:08:00,
2013-01-09 05:13:00,42.8,40.1,29.67,SW,225,5.4,5.4,90,0.00,,,0.04,WUHU216HW,2013-01-09 13:13:00,
2013-01-09 05:18:00,42.8,40.1,29.67,SW,225,1.1,5.4,90,0.00,,,0.04,WUHU216HW,2013-01-09 13:18:00,
2013-01-09 05:23:00,42.7,40.0,29.66,SSW,203,4.0,4.7,90,0.00,,,0.04,WUHU216HW,2013-01-09 13:23:00,
2013-01-09 05:28:00,42.7,40.0,29.66,SSE,158,2.2,4.7,90,0.00,,,0.04,WUHU216HW,2013-01-09 13:28:00,
2013-01-09 05:33:00,42.5,39.8,29.65,South,180,6.0,6.0,90,0.00,,,0.04,WUHU216HW,2013-01-09 13:33:00,
2013-01-09 05:38:00,42.5,39.8,29.65,SSE,158,0.4,6.7,90,0.00,,,0.04,WUHU216HW,2013-01-09 13:38:00,
2013-01-09 05:43:00,42.5,39.8,29.65,SW,225,4.7,12.8,90,0.00,,,0.04,WUHU216HW,2013-01-09 13:43:00,
2013-01-09 05:48:00,42.5,39.8,29.65,SW,225,6.9,12.8,90,0.00,,,0.04,WUHU216HW,2013-01-09 13:48:00,
2013-01-09 05:53:00,42.7,40.0,29.65,SSE,158,0.4,6.9,90,0.00,,,0.04,WUHU216HW,2013-01-09 13:53:00,
2013-01-09 05:58:00,42.7,40.0,29.65,SW,225,4.7,5.6,90,0.00,,,0.04,WUHU216HW,2013-01-09 13:58:00,
2013-01-09 06:03:00,42.5,39.8,29.65,South,180,1.8,5.6,90,0.00,,,0.04,WUHU216HW,2013-01-09 14:03:00,
2013-01-09 06:08:00,42.7,40.0,29.65,SSW,203,4.5,4.9,90,0.00,,,0.04,WUHU216HW,2013-01-09 14:08:00,
2013-01-09 06:13:00,42.7,40.0,29.65,SW,225,6.9,6.9,90,0.00,,,0.04,WUHU216HW,2013-01-09 14:13:00,
2013-01-09 06:18:00,42.7,40.0,29.65,West,270,1.8,6.9,90,0.00,,,0.04,WUHU216HW,2013-01-09 14:18:00,
2013-01-09 06:23:00,42.7,40.0,29.66,WSW,248,1.3,5.8,90,0.00,,,0.04,WUHU216HW,2013-01-09 14:23:00,
2013-01-09 06:28:00,42.7,39.7,29.66,SW,225,3.4,4.7,89,0.00,,,0.04,WUHU216HW,2013-01-09 14:28:00,
2013-01-09 06:33:00,42.7,40.0,29.66,WSW,248,2.5,6.5,90,0.00,,,0.04,WUHU216HW,2013-01-09 14:33:00,
2013-01-09 06:38:00,42.5,39.8,29.66,SW,225,2.9,6.5,90,0.00,,,0.04,WUHU216HW,2013-01-09 14:38:00,
2013-01-09 06:43:00,42.7,39.7,29.66,NW,315,3.4,4.5,89,0.00,,,0.04,WUHU216HW,2013-01-09 14:43:00,
2013-01-09 06:48:00,42.5,39.5,29.67,WSW,248,2.7,4.5,89,0.00,,,0.04,WUHU216HW,2013-01-09 14:48:00,
2013-01-09 06:53:00,42.5,39.8,29.66,West,270,3.6,3.6,90,0.00,,,0.04,WUHU216HW,2013-01-09 14:53:00,
2013-01-09 06:59:00,42.5,39.5,29.66,SW,225,1.8,3.6,89,0.00,,,0.04,WUHU216HW,2013-01-09 14:59:00,
2013-01-09 07:04:00,42.5,39.5,29.66,SW,225,2.9,7.4,89,0.00,,,0.04,WUHU216HW,2013-01-09 15:04:00,
2013-01-09 07:09:00,42.3,39.3,29.66,SW,225,0.9,7.4,89,0.00,,,0.04,WUHU216HW,2013-01-09 15:09:00,
2013-01-09 07:14:00,42.1,39.4,29.66,SSE,158,1.3,3.4,90,0.00,,,0.04,WUHU216HW,2013-01-09 15:14:00,
2013-01-09 07:19:00,42.1,39.2,29.66,SSE,158,2.5,2.9,89,0.00,,,0.04,WUHU216HW,2013-01-09 15:19:00,
2013-01-09 07:24:00,42.1,39.2,29.67,North,0,1.1,2.7,89,0.00,,,0.04,WUHU216HW,2013-01-09 15:24:00,
2013-01-09 07:29:00,42.1,39.4,29.67,NE,45,1.6,1.8,90,0.00,,,0.04,WUHU216HW,2013-01-09 15:29:00,
2013-01-09 07:34:00,41.9,39.2,29.66,ENE,68,1.3,2.9,90,0.00,,,0.04,WUHU216HW,2013-01-09 15:34:00,
2013-01-09 07:39:00,41.8,39.1,29.67,NE,45,0.9,2.9,90,0.00,,,0.04,WUHU216HW,2013-01-09 15:39:00,
2013-01-09 07:44:00,41.6,38.9,29.68,SE,135,1.3,2.0,90,0.00,,,0.04,WUHU216HW,2013-01-09 15:44:00,
2013-01-09 07:49:00,41.4,38.7,29.68,SE,135,1.1,2.5,90,0.00,,,0.04,WUHU216HW,2013-01-09 15:49:00,
2013-01-09 07:54:00,41.4,38.7,29.69,SSE,158,1.6,2.5,90,0.00,,,0.04,WUHU216HW,2013-01-09 15:54:00,
2013-01-09 07:59:00,41.4,38.7,29.68,SSW,203,1.8,2.9,90,0.00,,,0.04,WUHU216HW,2013-01-09 15:59:00,
2013-01-09 08:04:00,41.2,38.5,29.68,SE,135,1.1,2.9,90,0.00,,,0.04,WUHU216HW,2013-01-09 16:04:00,
2013-01-09 08:09:00,41.2,38.5,29.68,SW,225,2.2,2.5,90,0.00,,,0.04,WUHU216HW,2013-01-09 16:09:00,
2013-01-09 08:14:00,41.0,38.3,29.68,SSW,203,0.2,3.4,90,0.00,,,0.04,WUHU216HW,2013-01-09 16:14:00,
2013-01-09 08:19:00,41.2,38.5,29.68,SSE,158,1.1,3.6,90,0.00,,,0.04,WUHU216HW,2013-01-09 16:19:00,
2013-01-09 08:24:00,41.2,38.5,29.69,South,180,1.6,3.6,90,0.00,,,0.04,WUHU216HW,2013-01-09 16:24:00,
2013-01-09 08:29:00,41.2,38.5,29.69,SE,135,0.4,2.5,90,0.00,,,0.04,WUHU216HW,2013-01-09 16:29:00,
2013-01-09 08:34:00,41.2,38.5,29.69,SE,135,0.2,2.5,90,0.00,,,0.04,WUHU216HW,2013-01-09 16:34:00,
2013-01-09 08:39:00,41.2,38.5,29.69,ESE,113,1.1,2.5,90,0.00,,,0.04,WUHU216HW,2013-01-09 16:39:00,
2013-01-09 08:44:00,41.2,38.5,29.70,East,90,2.0,2.0,90,0.00,,,0.04,WUHU216HW,2013-01-09 16:44:00,
2013-01-09 08:49:00,41.0,38.3,29.70,ENE,68,1.6,2.0,90,0.00,,,0.04,WUHU216HW,2013-01-09 16:49:00,
2013-01-09 08:54:00,41.0,38.3,29.70,ESE,113,2.5,2.9,90,0.00,,,0.04,WUHU216HW,2013-01-09 16:54:00,
2013-01-09 08:59:00,40.9,38.2,29.70,ENE,68,2.0,2.9,90,0.00,,,0.04,WUHU216HW,2013-01-09 16:59:00,
2013-01-09 09:04:00,41.0,38.3,29.70,SSE,158,0.7,2.5,90,0.00,,,0.04,WUHU216HW,2013-01-09 17:04:00,
2013-01-09 09:09:00,41.0,38.3,29.70,SE,135,1.1,2.2,90,0.00,,,0.04,WUHU216HW,2013-01-09 17:09:00,
2013-01-09 09:14:00,40.9,38.2,29.70,SSE,158,1.6,3.4,90,0.00,,,0.04,WUHU216HW,2013-01-09 17:14:00,
2013-01-09 09:19:00,41.0,38.3,29.70,SE,135,0.9,3.4,90,0.00,,,0.04,WUHU216HW,2013-01-09 17:19:00,
2013-01-09 09:24:00,41.0,38.3,29.70,East,90,0.7,3.4,90,0.00,,,0.04,WUHU216HW,2013-01-09 17:24:00,
2013-01-09 09:29:00,41.0,38.3,29.70,SE,135,0.7,3.4,90,0.00,,,0.04,WUHU216HW,2013-01-09 17:29:00,
2013-01-09 09:34:00,41.0,38.3,29.71,SW,225,0.9,2.2,90,0.00,,,0.04,WUHU216HW,2013-01-09 17:34:00,
2013-01-09 09:39:00,41.2,38.5,29.71,SE,135,0.9,2.2,90,0.00,,,0.04,WUHU216HW,2013-01-09 17:39:00,
2013-01-09 09:44:00,41.2,38.5,29.70,SSE,158,1.1,3.4,90,0.00,,,0.04,WUHU216HW,2013-01-09 17:44:00,
2013-01-09 09:49:00,41.4,38.7,29.71,South,180,0.4,3.4,90,0.00,,,0.04,WUHU216HW,2013-01-09 17:49:00,
2013-01-09 09:54:00,41.4,38.7,29.71,SSE,158,2.0,2.9,90,0.00,,,0.04,WUHU216HW,2013-01-09 17:54:00,
2013-01-09 09:59:00,41.6,38.9,29.71,SSE,158,2.2,2.9,90,0.00,,,0.04,WUHU216HW,2013-01-09 17:59:00,
2013-01-09 10:04:00,41.8,39.1,29.71,SE,135,2.5,4.5,90,0.00,,,0.04,WUHU216HW,2013-01-09 18:04:00,
2013-01-09 10:09:00,41.9,39.2,29.72,SSE,158,2.9,4.5,90,0.00,,,0.04,WUHU216HW,2013-01-09 18:09:00,
2013-01-09 10:14:00,42.1,39.4,29.72,SE,135,3.4,4.7,90,0.00,,,0.04,WUHU216HW,2013-01-09 18:14:00,
2013-01-09 10:19:00,42.3,39.6,29.72,SSE,158,1.1,4.7,90,0.00,,,0.04,WUHU216HW,2013-01-09 18:19:00,
2013-01-09 10:24:00,42.3,39.6,29.72,SW,225,0.7,4.0,90,0.00,,,0.04,WUHU216HW,2013-01-09 18:24:00,
2013-01-09 10:29:00,42.7,40.0,29.72,WSW,248,3.1,3.1,90,0.00,,,0.04,WUHU216HW,2013-01-09 18:29:00,
2013-01-09 10:34:00,42.7,39.7,29.72,South,180,2.5,4.7,89,0.00,,,0.04,WUHU216HW,2013-01-09 18:34:00,
2013-01-09 10:39:00,42.8,39.9,29.72,South,180,2.5,4.7,89,0.00,,,0.04,WUHU216HW,2013-01-09 18:39:00,
2013-01-09 10:44:00,42.8,39.9,29.72,SW,225,3.4,4.7,89,0.00,,,0.04,WUHU216HW,2013-01-09 18:44:00,
2013-01-09 10:49:00,43.0,40.1,29.72,SE,135,1.8,7.4,89,0.00,,,0.04,WUHU216HW,2013-01-09 18:49:00,
2013-01-09 10:54:00,43.2,40.2,29.72,South,180,6.7,7.4,89,0.00,,,0.04,WUHU216HW,2013-01-09 18:54:00,
2013-01-09 10:59:00,43.6,40.6,29.72,SSW,203,3.6,6.7,89,0.00,,,0.04,WUHU216HW,2013-01-09 18:59:00,
2013-01-09 11:04:00,43.6,40.2,29.72,South,180,3.4,5.4,88,0.00,,,0.04,WUHU216HW,2013-01-09 19:04:00,
2013-01-09 11:09:00,43.7,40.4,29.72,SW,225,1.8,5.4,88,0.00,,,0.04,WUHU216HW,2013-01-09 19:09:00,
2013-01-09 11:15:00,43.9,40.6,29.72,SSW,203,3.8,3.8,88,0.00,,,0.04,WUHU216HW,2013-01-09 19:15:00,
2013-01-09 11:20:00,44.3,41.0,29.72,ENE,68,4.0,6.3,88,0.00,,,0.04,WUHU216HW,2013-01-09 19:20:00,
2013-01-09 11:25:00,44.6,41.7,29.72,WSW,248,1.1,6.3,89,0.00,,,0.04,WUHU216HW,2013-01-09 19:25:00,
2013-01-09 11:30:00,45.0,41.7,29.72,SW,225,2.9,8.3,88,0.00,,,0.04,WUHU216HW,2013-01-09 19:30:00,
2013-01-09 11:35:00,45.0,41.7,29.72,SSW,203,7.6,10.5,88,0.00,,,0.04,WUHU216HW,2013-01-09 19:35:00,
2013-01-09 11:40:00,45.0,41.4,29.72,SW,225,3.8,10.5,87,0.00,,,0.04,WUHU216HW,2013-01-09 19:40:00,
2013-01-09 11:45:00,45.2,41.6,29.72,SSW,203,4.5,8.7,87,0.00,,,0.04,WUHU216HW,2013-01-09 19:45:00,
2013-01-09 11:50:00,45.4,41.4,29.72,SSW,203,7.6,13.4,86,0.00,,,0.04,WUHU216HW,2013-01-09 19:50:00,
2013-01-09 11:55:00,45.5,41.6,29.72,West,270,3.8,13.4,86,0.00,,,0.04,WUHU216HW,2013-01-09 19:55:00,
2013-01-09 12:00:00,45.5,41.3,29.71,SSE,158,5.4,8.9,85,0.00,,,0.04,WUHU216HW,2013-01-09 20:00:00,
2013-01-09 12:05:00,45.5,41.3,29.71,SSW,203,4.9,8.5,85,0.00,,,0.04,WUHU216HW,2013-01-09 20:05:00,
2013-01-09 12:10:00,45.4,41.1,29.71,South,180,4.7,9.2,85,0.00,,,0.04,WUHU216HW,2013-01-09 20:10:00,
2013-01-09 12:15:00,45.4,41.1,29.72,SW,225,12.1,12.1,85,0.00,,,0.04,WUHU216HW,2013-01-09 20:15:00,
2013-01-09 12:20:00,45.2,41.0,29.72,NNE,23,1.3,12.1,85,0.00,,,0.04,WUHU216HW,2013-01-09 20:20:00,
2013-01-09 12:25:00,45.2,41.0,29.72,WSW,248,8.5,9.4,85,0.00,,,0.04,WUHU216HW,2013-01-09 20:25:00,
2013-01-09 12:30:00,45.2,41.0,29.72,WSW,248,4.7,8.7,85,0.00,,,0.04,WUHU216HW,2013-01-09 20:30:00,
2013-01-09 12:35:00,45.2,41.0,29.72,SW,225,7.2,9.8,85,0.00,,,0.04,WUHU216HW,2013-01-09 20:35:00,
2013-01-09 12:40:00,45.0,40.8,29.72,SSW,203,4.5,9.8,85,0.00,,,0.04,WUHU216HW,2013-01-09 20:40:00,
2013-01-09 12:45:00,45.0,40.8,29.72,West,270,2.5,9.2,85,0.00,,,0.04,WUHU216HW,2013-01-09 20:45:00,
2013-01-09 12:50:00,45.0,40.8,29.72,SSW,203,6.9,9.2,85,0.00,,,0.04,WUHU216HW,2013-01-09 20:50:00,
2013-01-09 12:55:00,44.8,40.6,29.72,WSW,248,6.3,7.8,85,0.00,,,0.04,WUHU216HW,2013-01-09 20:55:00,
2013-01-09 13:00:00,44.6,40.4,29.72,WSW,248,3.8,11.4,85,0.00,,,0.04,WUHU216HW,2013-01-09 21:00:00,
2013-01-09 13:05:00,44.6,40.4,29.73,WSW,248,9.6,11.4,85,0.00,,,0.04,WUHU216HW,2013-01-09 21:05:00,
2013-01-09 13:10:00,44.6,40.4,29.72,SSW,203,6.0,11.0,85,0.00,,,0.04,WUHU216HW,2013-01-09 21:10:00,
2013-01-09 13:15:00,44.5,40.2,29.73,SW,225,7.6,9.6,85,0.00,,,0.04,WUHU216HW,2013-01-09 21:15:00,
2013-01-09 13:20:00,44.3,40.1,29.73,SSW,203,3.8,7.6,85,0.00,,,0.04,WUHU216HW,2013-01-09 21:20:00,
2013-01-09 13:25:00,44.1,39.6,29.74,SW,225,1.8,8.3,84,0.00,,,0.04,WUHU216HW,2013-01-09 21:25:00,
2013-01-09 13:30:00,43.9,39.7,29.74,South,180,6.9,8.3,85,0.00,,,0.04,WUHU216HW,2013-01-09 21:30:00,
2013-01-09 13:35:00,43.9,39.7,29.74,SW,225,7.2,7.2,85,0.00,,,0.04,WUHU216HW,2013-01-09 21:35:00,
2013-01-09 13:40:00,43.9,39.7,29.74,WSW,248,4.5,7.2,85,0.00,,,0.04,WUHU216HW,2013-01-09 21:40:00,
2013-01-09 13:45:00,44.1,39.9,29.75,SSW,203,6.9,7.2,85,0.00,,,0.04,WUHU216HW,2013-01-09 21:45:00,
2013-01-09 13:50:00,44.1,39.9,29.75,SW,225,10.1,10.1,85,0.00,,,0.04,WUHU216HW,2013-01-09 21:50:00,
2013-01-09 13:55:00,44.1,39.9,29.75,SE,135,3.4,10.1,85,0.00,,,0.04,WUHU216HW,2013-01-09 21:55:00,
2013-01-09 14:00:00,43.9,39.7,29.75,South,180,2.2,7.8,85,0.00,,,0.04,WUHU216HW,2013-01-09 22:00:00,
2013-01-09 14:05:00,43.9,39.7,29.75,SSW,203,6.9,9.6,85,0.00,,,0.04,WUHU216HW,2013-01-09 22:05:00,
2013-01-09 14:10:00,43.9,39.7,29.76,West,270,4.0,9.6,85,0.00,,,0.04,WUHU216HW,2013-01-09 22:10:00,
2013-01-09 14:15:00,43.9,39.7,29.76,West,270,2.0,8.9,85,0.00,,,0.04,WUHU216HW,2013-01-09 22:15:00,
2013-01-09 14:20:00,43.9,39.7,29.76,SSW,203,5.4,5.4,85,0.00,,,0.04,WUHU216HW,2013-01-09 22:20:00,
2013-01-09 14:25:00,43.9,39.7,29.76,SW,225,6.0,6.0,85,0.00,,,0.04,WUHU216HW,2013-01-09 22:25:00,
2013-01-09 14:30:00,43.9,39.7,29.76,WSW,248,7.4,7.4,85,0.00,,,0.04,WUHU216HW,2013-01-09 22:30:00,
2013-01-09 14:35:00,43.7,39.5,29.76,SSW,203,2.9,7.6,85,0.00,,,0.04,WUHU216HW,2013-01-09 22:35:00,
2013-01-09 14:40:00,43.7,39.5,29.77,SW,225,8.3,8.3,85,0.00,,,0.04,WUHU216HW,2013-01-09 22:40:00,
2013-01-09 14:45:00,43.6,39.3,29.77,SW,225,4.0,8.3,85,0.00,,,0.04,WUHU216HW,2013-01-09 22:45:00,
2013-01-09 14:50:00,43.6,39.3,29.77,South,180,0.0,5.4,85,0.00,,,0.04,WUHU216HW,2013-01-09 22:50:00,
2013-01-09 14:55:00,43.6,39.3,29.77,WSW,248,2.5,5.1,85,0.00,,,0.04,WUHU216HW,2013-01-09 22:55:00,
2013-01-09 15:00:00,43.6,39.3,29.77,WSW,248,4.0,6.3,85,0.00,,,0.04,WUHU216HW,2013-01-09 23:00:00,
2013-01-09 15:05:00,43.6,39.3,29.77,SW,225,2.9,6.3,85,0.00,,,0.04,WUHU216HW,2013-01-09 23:05:00,
2013-01-09 15:10:00,43.6,39.3,29.77,SSE,158,1.8,5.1,85,0.00,,,0.04,WUHU216HW,2013-01-09 23:10:00,
2013-01-09 15:15:00,43.4,39.2,29.77,SW,225,1.3,5.4,85,0.00,,,0.04,WUHU216HW,2013-01-09 23:15:00,
2013-01-09 15:20:00,43.2,39.0,29.78,WSW,248,0.4,5.4,85,0.00,,,0.04,WUHU216HW,2013-01-09 23:20:00,
2013-01-09 15:25:00,43.2,39.0,29.78,WSW,248,3.4,3.6,85,0.00,,,0.04,WUHU216HW,2013-01-09 23:25:00,
2013-01-09 15:30:00,43.2,39.0,29.78,WSW,248,2.5,5.6,85,0.00,,,0.04,WUHU216HW,2013-01-09 23:30:00,
2013-01-09 15:35:00,43.2,39.0,29.78,SW,225,4.5,6.9,85,0.00,,,0.04,WUHU216HW,2013-01-09 23:35:00,
2013-01-09 15:40:00,43.0,38.5,29.78,West,270,6.3,6.9,84,0.00,,,0.04,WUHU216HW,2013-01-09 23:40:00,
2013-01-09 15:45:00,42.8,38.4,29.79,SSE,158,1.8,6.3,84,0.00,,,0.04,WUHU216HW,2013-01-09 23:45:00,
2013-01-09 15:50:00,42.8,38.4,29.79,West,270,1.8,7.2,84,0.00,,,0.04,WUHU216HW,2013-01-09 23:50:00,
2013-01-09 15:55:00,42.8,38.4,29.79,SSW,203,0.4,7.2,84,0.00,,,0.04,WUHU216HW,2013-01-09 23:55:00,
2013-01-09 16:00:00,42.7,38.2,29.79,SW,225,3.1,5.4,84,0.00,,,0.04,WUHU216HW,2013-01-10 00:00:00,
2013-01-09 16:05:00,42.5,38.0,29.79,SSW,203,3.6,5.4,84,0.00,,,0.04,WUHU216HW,2013-01-10 00:05:00,
2013-01-09 16:10:00,42.5,38.0,29.79,West,270,1.3,3.6,84,0.00,,,0.04,WUHU216HW,2013-01-10 00:10:00,
2013-01-09 16:15:00,42.3,37.8,29.79,WSW,248,3.4,3.4,84,0.00,,,0.04,WUHU216HW,2013-01-10 00:15:00,
2013-01-09 16:20:00,42.3,37.8,29.79,West,270,3.4,6.3,84,0.00,,,0.04,WUHU216HW,2013-01-10 00:20:00,
2013-01-09 16:25:00,42.1,37.6,29.79,SW,225,5.4,6.3,84,0.00,,,0.04,WUHU216HW,2013-01-10 00:25:00,
2013-01-09 16:30:00,42.1,37.6,29.79,SE,135,0.7,5.4,84,0.00,,,0.04,WUHU216HW,2013-01-10 00:30:00,
2013-01-09 16:35:00,42.1,37.6,29.79,WNW,293,1.6,6.7,84,0.00,,,0.04,WUHU216HW,2013-01-10 00:35:00,
2013-01-09 16:40:00,41.9,37.5,29.80,South,180,2.9,6.7,84,0.00,,,0.04,WUHU216HW,2013-01-10 00:40:00,
2013-01-09 16:45:00,41.8,37.5,29.79,WSW,248,2.0,2.9,85,0.00,,,0.04,WUHU216HW,2013-01-10 00:45:00,
2013-01-09 16:50:00,41.8,37.5,29.79,SW,225,1.6,4.0,85,0.00,,,0.04,WUHU216HW,2013-01-10 00:50:00,
2013-01-09 16:55:00,41.6,37.1,29.79,SSW,203,0.0,5.4,84,0.00,,,0.04,WUHU216HW,2013-01-10 00:55:00,
2013-01-09 17:00:00,41.6,37.1,29.80,WSW,248,4.9,5.4,84,0.00,,,0.04,WUHU216HW,2013-01-10 01:00:00,
2013-01-09 17:05:00,41.4,36.9,29.80,SW,225,1.1,4.9,84,0.00,,,0.04,WUHU216HW,2013-01-10 01:05:00,
2013-01-09 17:10:00,41.4,36.9,29.80,SSW,203,1.3,4.7,84,0.00,,,0.04,WUHU216HW,2013-01-10 01:10:00,
2013-01-09 17:15:00,41.2,36.7,29.80,SSW,203,1.3,2.7,84,0.00,,,0.04,WUHU216HW,2013-01-10 01:15:00,
2013-01-09 17:20:00,41.0,36.6,29.80,South,180,3.8,4.0,84,0.00,,,0.04,WUHU216HW,2013-01-10 01:20:00,
2013-01-09 17:25:00,40.9,36.4,29.80,SE,135,4.0,4.0,84,0.00,,,0.04,WUHU216HW,2013-01-10 01:25:00,
2013-01-09 17:30:00,40.7,36.2,29.81,SW,225,1.8,4.0,84,0.00,,,0.04,WUHU216HW,2013-01-10 01:30:00,
2013-01-09 17:35:00,40.7,36.2,29.81,SSE,158,1.1,3.6,84,0.00,,,0.04,WUHU216HW,2013-01-10 01:35:00,
2013-01-09 17:40:00,40.5,36.0,29.81,SSE,158,1.3,3.6,84,0.00,,,0.04,WUHU216HW,2013-01-10 01:40:00,
2013-01-09 17:45:00,40.3,35.8,29.81,SE,135,0.9,3.1,84,0.00,,,0.04,WUHU216HW,2013-01-10 01:45:00,
2013-01-09 17:50:00,40.0,35.5,29.82,South,180,2.5,3.1,84,0.00,,,0.04,WUHU216HW,2013-01-10 01:50:00,
2013-01-09 17:56:00,40.0,35.5,29.82,WSW,248,0.4,7.6,84,0.00,,,0.04,WUHU216HW,2013-01-10 01:56:00,
2013-01-09 18:01:00,39.8,35.3,29.82,SW,225,4.9,7.6,84,0.00,,,0.04,WUHU216HW,2013-01-10 02:01:00,
2013-01-09 18:06:00,39.8,35.3,29.83,SW,225,5.6,6.3,84,0.00,,,0.04,WUHU216HW,2013-01-10 02:06:00,
2013-01-09 18:11:00,39.8,35.3,29.83,SSW,203,4.7,6.3,84,0.00,,,0.04,WUHU216HW,2013-01-10 02:11:00,
2013-01-09 18:16:00,40.0,35.5,29.83,South,180,1.6,7.8,84,0.00,,,0.04,WUHU216HW,2013-01-10 02:16:00,
2013-01-09 18:21:00,39.8,35.3,29.83,West,270,1.3,7.8,84,0.00,,,0.04,WUHU216HW,2013-01-10 02:21:00,
2013-01-09 18:26:00,39.8,35.3,29.83,SE,135,1.8,7.4,84,0.00,,,0.04,WUHU216HW,2013-01-10 02:26:00,
2013-01-09 18:31:00,39.6,35.2,29.83,SSW,203,1.8,7.2,84,0.00,,,0.04,WUHU216HW,2013-01-10 02:31:00,
2013-01-09 18:36:00,39.6,34.8,29.83,South,180,3.4,7.2,83,0.00,,,0.04,WUHU216HW,2013-01-10 02:36:00,
2013-01-09 18:41:00,39.4,35.0,29.83,SSE,158,2.7,5.4,84,0.00,,,0.04,WUHU216HW,2013-01-10 02:41:00,
2013-01-09 18:46:00,39.2,34.8,29.83,South,180,2.2,3.6,84,0.00,,,0.04,WUHU216HW,2013-01-10 02:46:00,
2013-01-09 18:51:00,38.9,34.5,29.83,East,90,0.2,3.6,84,0.00,,,0.04,WUHU216HW,2013-01-10 02:51:00,
2013-01-09 18:56:00,38.5,34.1,29.84,East,90,1.8,2.5,84,0.00,,,0.04,WUHU216HW,2013-01-10 02:56:00,
2013-01-09 19:01:00,38.3,33.9,29.84,ESE,113,1.6,2.0,84,0.00,,,0.04,WUHU216HW,2013-01-10 03:01:00,
2013-01-09 19:06:00,38.0,33.6,29.84,WSW,248,2.5,2.5,84,0.00,,,0.04,WUHU216HW,2013-01-10 03:06:00,
2013-01-09 19:11:00,37.6,33.5,29.84,South,180,1.8,2.5,85,0.00,,,0.04,WUHU216HW,2013-01-10 03:11:00,
2013-01-09 19:16:00,37.4,33.3,29.84,SW,225,5.4,5.4,85,0.00,,,0.04,WUHU216HW,2013-01-10 03:16:00,
2013-01-09 19:21:00,37.1,32.9,29.84,SE,135,0.7,5.4,85,0.00,,,0.04,WUHU216HW,2013-01-10 03:21:00,
2013-01-09 19:26:00,37.1,33.2,29.84,South,180,1.8,5.1,86,0.00,,,0.04,WUHU216HW,2013-01-10 03:26:00,
2013-01-09 19:31:00,37.1,33.2,29.84,West,270,2.0,4.7,86,0.00,,,0.04,WUHU216HW,2013-01-10 03:31:00,
2013-01-09 19:36:00,37.1,33.2,29.85,SSE,158,2.5,5.1,86,0.00,,,0.04,WUHU216HW,2013-01-10 03:36:00,
2013-01-09 19:41:00,37.1,33.2,29.85,SE,135,1.6,5.1,86,0.00,,,0.04,WUHU216HW,2013-01-10 03:41:00,
2013-01-09 19:46:00,37.1,33.2,29.85,South,180,2.9,4.0,86,0.00,,,0.04,WUHU216HW,2013-01-10 03:46:00,
2013-01-09 19:51:00,36.9,33.0,29.86,NW,315,1.3,4.0,86,0.00,,,0.04,WUHU216HW,2013-01-10 03:51:00,
2013-01-09 19:56:00,36.7,32.9,29.86,SE,135,2.2,3.8,86,0.00,,,0.04,WUHU216HW,2013-01-10 03:56:00,
2013-01-09 20:01:00,36.5,32.7,29.86,SSE,158,4.7,4.7,86,0.00,,,0.04,WUHU216HW,2013-01-10 04:01:00,
2013-01-09 20:06:00,36.5,32.9,29.86,SSE,158,1.8,4.7,87,0.00,,,0.04,WUHU216HW,2013-01-10 04:06:00,
2013-01-09 20:11:00,36.5,32.9,29.86,SSW,203,1.8,4.7,87,0.00,,,0.04,WUHU216HW,2013-01-10 04:11:00,
2013-01-09 20:16:00,36.5,32.9,29.86,SSW,203,2.2,4.7,87,0.00,,,0.04,WUHU216HW,2013-01-10 04:16:00,
2013-01-09 20:21:00,36.5,32.9,29.86,SSE,158,1.1,4.0,87,0.00,,,0.04,WUHU216HW,2013-01-10 04:21:00,
2013-01-09 20:26:00,36.4,32.8,29.86,South,180,1.8,4.0,87,0.00,,,0.04,WUHU216HW,2013-01-10 04:26:00,
2013-01-09 20:31:00,36.4,32.8,29.87,SSE,158,0.2,2.0,87,0.00,,,0.04,WUHU216HW,2013-01-10 04:31:00,
2013-01-09 20:36:00,36.2,32.6,29.87,SE,135,0.7,2.0,87,0.00,,,0.04,WUHU216HW,2013-01-10 04:36:00,
2013-01-09 20:41:00,36.0,32.4,29.87,SSE,158,1.1,2.7,87,0.00,,,0.04,WUHU216HW,2013-01-10 04:41:00,
2013-01-09 20:46:00,35.8,32.2,29.87,SE,135,1.8,2.7,87,0.00,,,0.04,WUHU216HW,2013-01-10 04:46:00,
2013-01-09 20:51:00,35.6,31.8,29.87,SSE,158,3.4,3.4,86,0.00,,,0.04,WUHU216HW,2013-01-10 04:51:00,
2013-01-09 20:56:00,35.8,32.6,29.87,SSE,158,0.7,5.4,88,0.00,,,0.04,WUHU216HW,2013-01-10 04:56:00,
2013-01-09 21:01:00,36.0,32.4,29.87,West,270,0.9,5.4,87,0.00,,,0.04,WUHU216HW,2013-01-10 05:01:00,
2013-01-09 21:06:00,36.0,32.8,29.88,SE,135,0.9,4.7,88,0.00,,,0.04,WUHU216HW,2013-01-10 05:06:00,
2013-01-09 21:11:00,35.8,32.2,29.88,SW,225,0.7,4.7,87,0.00,,,0.04,WUHU216HW,2013-01-10 05:11:00,
2013-01-09 21:16:00,35.8,32.2,29.88,SW,225,2.2,4.0,87,0.00,,,0.04,WUHU216HW,2013-01-10 05:16:00,
2013-01-09 21:21:00,35.8,32.2,29.88,SE,135,1.8,4.0,87,0.00,,,0.04,WUHU216HW,2013-01-10 05:21:00,
2013-01-09 21:26:00,35.6,32.0,29.88,ESE,113,1.1,2.7,87,0.00,,,0.04,WUHU216HW,2013-01-10 05:26:00,
2013-01-09 21:31:00,35.6,32.0,29.88,SSW,203,0.9,2.7,87,0.00,,,0.04,WUHU216HW,2013-01-10 05:31:00,
2013-01-09 21:36:00,35.6,32.4,29.89,SE,135,3.1,4.7,88,0.00,,,0.04,WUHU216HW,2013-01-10 05:36:00,
2013-01-09 21:41:00,35.6,32.4,29.89,SE,135,0.9,4.7,88,0.00,,,0.04,WUHU216HW,2013-01-10 05:41:00,
2013-01-09 21:46:00,35.5,32.2,29.89,SSE,158,1.1,3.6,88,0.00,,,0.04,WUHU216HW,2013-01-10 05:46:00,
2013-01-09 21:51:00,35.5,32.2,29.89,SE,135,1.8,3.6,88,0.00,,,0.04,WUHU216HW,2013-01-10 05:51:00,
2013-01-09 21:56:00,35.3,32.1,29.90,SSE,158,3.4,3.4,88,0.00,,,0.04,WUHU216HW,2013-01-10 05:56:00,
2013-01-09 22:01:00,35.3,32.1,29.90,ESE,113,1.6,3.4,88,0.00,,,0.04,WUHU216HW,2013-01-10 06:01:00,
2013-01-09 22:06:00,35.1,31.9,29.90,SE,135,1.3,2.7,88,0.00,,,0.04,WUHU216HW,2013-01-10 06:06:00,
2013-01-09 22:11:00,34.9,31.7,29.90,South,180,0.7,3.4,88,0.00,,,0.04,WUHU216HW,2013-01-10 06:11:00,
2013-01-09 22:16:00,34.9,31.7,29.90,SSE,158,1.1,3.4,88,0.00,,,0.04,WUHU216HW,2013-01-10 06:16:00,
2013-01-09 22:21:00,34.9,31.7,29.90,SE,135,0.9,1.8,88,0.00,,,0.04,WUHU216HW,2013-01-10 06:21:00,
2013-01-09 22:26:00,34.7,31.5,29.90,SE,135,1.6,1.8,88,0.00,,,0.04,WUHU216HW,2013-01-10 06:26:00,
2013-01-09 22:31:00,34.6,31.3,29.90,SE,135,1.1,1.8,88,0.00,,,0.04,WUHU216HW,2013-01-10 06:31:00,
2013-01-09 22:36:00,34.6,31.6,29.90,SE,135,0.7,2.5,89,0.00,,,0.04,WUHU216HW,2013-01-10 06:36:00,
2013-01-09 22:41:00,34.4,31.4,29.91,ESE,113,1.1,3.4,89,0.00,,,0.04,WUHU216HW,2013-01-10 06:41:00,
2013-01-09 22:46:00,34.4,31.4,29.91,SE,135,1.8,3.4,89,0.00,,,0.04,WUHU216HW,2013-01-10 06:46:00,
2013-01-09 22:51:00,34.2,31.2,29.91,SE,135,1.3,2.7,89,0.00,,,0.04,WUHU216HW,2013-01-10 06:51:00,
2013-01-09 22:56:00,34.2,31.2,29.91,SSE,158,3.1,3.1,89,0.00,,,0.04,WUHU216HW,2013-01-10 06:56:00,
2013-01-09 23:01:00,34.2,31.2,29.91,SSE,158,3.4,3.4,89,0.00,,,0.04,WUHU216HW,2013-01-10 07:01:00,
2013-01-09 23:06:00,34.6,31.6,29.91,ESE,113,0.4,3.4,89,0.00,,,0.04,WUHU216HW,2013-01-10 07:06:00,
2013-01-09 23:11:00,34.7,31.8,29.91,ESE,113,0.7,2.7,89,0.00,,,0.04,WUHU216HW,2013-01-10 07:11:00,
2013-01-09 23:16:00,34.9,32.0,29.91,SE,135,1.1,2.0,89,0.00,,,0.04,WUHU216HW,2013-01-10 07:16:00,
2013-01-09 23:21:00,35.1,32.1,29.91,ENE,68,1.1,1.3,89,0.00,,,0.04,WUHU216HW,2013-01-10 07:21:00,
2013-01-09 23:26:00,35.3,32.3,29.91,SW,225,2.5,2.5,89,0.00,,,0.04,WUHU216HW,2013-01-10 07:26:00,
2013-01-09 23:31:00,35.5,32.5,29.91,ESE,113,1.1,2.7,89,0.00,,,0.04,WUHU216HW,2013-01-10 07:31:00,
2013-01-09 23:36:00,35.8,33.1,29.92,SE,135,2.2,4.7,90,0.00,,,0.04,WUHU216HW,2013-01-10 07:36:00,
2013-01-09 23:41:00,36.2,33.5,29.92,East,90,1.1,4.7,90,0.00,,,0.04,WUHU216HW,2013-01-10 07:41:00,
2013-01-09 23:46:00,36.4,33.7,29.92,SSW,203,4.9,4.9,90,0.00,,,0.04,WUHU216HW,2013-01-10 07:46:00,
2013-01-09 23:51:00,36.4,33.4,29.92,SSW,203,4.3,4.9,89,0.00,,,0.04,WUHU216HW,2013-01-10 07:51:00,
2013-01-09 23:56:00,36.7,34.0,29.92,SE,135,1.6,4.3,90,0.00,,,0.04,WUHU216HW,2013-01-10 07:56:00,